Twin Island FAA Web Cam AK US FAA-ALASKA current weather conditions

sailwx.info

Wind from 303 at 11 knots

Last reported at 2020-Jan-22 02:50 UTC.
Time now 2020-Jan-22 15:07 UTC

Location: N 55°23' W 131°16'.
View on Google Maps.

See reports from other nearby stations

  
Tides and Currents Weather Stations Pressure Air Temp Water Temp Dewpoint Dewpoint Depression Visibility Wind Speed Wind Dir Waves Ship Positions
date/time (UTC)wind fromknots sea level pressurealtimeterstation pressurevisibilityair tempwater tempwave heightnotes
2020-Jan-22 02:50 303 11
2020-Jan-22 02:40 308 14
2020-Jan-22 02:30 313 14
2020-Jan-22 02:20 311 13
2020-Jan-22 02:10 310 12
2020-Jan-22 02:00 308 9
2020-Jan-22 01:50 310 10
2020-Jan-22 01:40 308 8
2020-Jan-22 01:30 308 9
2020-Jan-22 01:20 311 10
2020-Jan-22 01:00 316 10
2020-Jan-22 00:50 318 9
2020-Jan-22 00:30 314 12
2020-Jan-22 00:20 317 13
2020-Jan-22 00:10 309 12
2020-Jan-22 00:00 318 11
2020-Jan-21 23:50 311 13
2020-Jan-21 23:40 325 11
2020-Jan-21 23:30 316 11
2020-Jan-21 23:10 319 9
2020-Jan-21 23:00 316 9
2020-Jan-21 22:50 316 8
2020-Jan-21 22:40 316 11
2020-Jan-21 22:30 312 10
2020-Jan-21 22:20 312 8
2020-Jan-21 22:10 331 8
2020-Jan-21 22:00 324 9
2020-Jan-21 21:50 354 9
2020-Jan-21 21:40 313 8
2020-Jan-21 21:30 313 10
2020-Jan-21 21:20 334 8
2020-Jan-21 21:10 323 9
2020-Jan-21 21:00 326 9
2020-Jan-21 20:50 335 6
2020-Jan-21 20:40 323 8
2020-Jan-21 20:30 310 9
2020-Jan-21 20:20 324 8
2020-Jan-21 20:10 306 6
2020-Jan-21 20:00 296 5
2020-Jan-21 19:50 298 10
2020-Jan-21 19:30 280 8
2020-Jan-21 19:20 270 10
2020-Jan-21 19:10 290 12
2020-Jan-21 19:00 301 7
2020-Jan-21 18:50 309 13
2020-Jan-21 18:40 318 8
2020-Jan-21 18:30 301 14
2020-Jan-21 18:20 305 14
2020-Jan-21 18:10 297 11
2020-Jan-21 17:50 297 10
2020-Jan-21 17:40 302 7
2020-Jan-21 17:30 299 7
2020-Jan-21 17:20 287 11
2020-Jan-21 17:10 293 9
2020-Jan-21 17:00 295 9
2020-Jan-21 16:50 311 13
2020-Jan-21 16:40 306 11
2020-Jan-21 16:30 302 12
2020-Jan-21 16:20 308 10
2020-Jan-21 16:10 298 10
2020-Jan-21 15:50 282 10
2020-Jan-21 15:40 262 7
2020-Jan-21 15:30 267 8
2020-Jan-21 15:20 280 4
2020-Jan-21 15:10 271 11
2020-Jan-21 15:00 279 9
2020-Jan-21 02:50 310 15
2020-Jan-21 02:40 308 14
2020-Jan-21 02:30 308 13
2020-Jan-21 02:20 316 14
2020-Jan-21 02:10 316 14
2020-Jan-21 02:00 320 13
2020-Jan-21 01:50 323 11
2020-Jan-21 01:40 331 10
2020-Jan-21 01:30 325 12
2020-Jan-21 01:20 322 12
2020-Jan-21 01:10 326 10
2020-Jan-21 01:00 329 8
2020-Jan-21 00:50 041 8
2020-Jan-21 00:40 038 10
2020-Jan-21 00:30 052 11
2020-Jan-21 00:20 049 11
2020-Jan-21 00:10 091 8
2020-Jan-21 00:00 077 8
2020-Jan-20 23:50 102 14
2020-Jan-20 23:40 040 6
2020-Jan-20 23:30 064 10
2020-Jan-20 23:20 060 9
2020-Jan-20 23:00 074 8
2020-Jan-20 22:50 101 9
2020-Jan-20 22:40 094 13
2020-Jan-20 22:30 095 14
2020-Jan-20 22:10 089 12
2020-Jan-20 22:00 088 17
2020-Jan-20 21:50 095 18
2020-Jan-20 21:40 093 14
2020-Jan-20 21:30 104 16
2020-Jan-20 21:20 103 13
2020-Jan-20 21:10 095 15
2020-Jan-20 21:00 095 15
2020-Jan-20 20:50 093 13
2020-Jan-20 20:40 091 12
2020-Jan-20 20:30 090 18
2020-Jan-20 20:20 102 10
2020-Jan-20 20:10 106 9
2020-Jan-20 20:00 085 9
2020-Jan-20 19:40 009 4
2020-Jan-20 19:30 080 3
2020-Jan-20 19:20 070 3
2020-Jan-20 19:10 078 2
2020-Jan-20 19:00 333 4
2020-Jan-20 18:50 351 4
2020-Jan-20 18:40 355 4
2020-Jan-20 18:30 014 4
2020-Jan-20 18:20 004 4
2020-Jan-20 18:10 005 5
2020-Jan-20 18:00 008 6
2020-Jan-20 17:40 356 4
2020-Jan-20 17:30 310 3
2020-Jan-20 17:20 298 5
2020-Jan-20 17:10 316 4
2020-Jan-20 16:50 319 5
2020-Jan-20 16:40 299 7
2020-Jan-20 16:30 298 6
2020-Jan-20 16:20 293 8
2020-Jan-20 16:10 301 9
2020-Jan-20 16:00 317 6
2020-Jan-20 15:50 292 8
2020-Jan-20 15:30 301 9
2020-Jan-20 15:20 306 9
2020-Jan-20 15:10 308 9
2020-Jan-20 15:00 316 8